Satellite-Ground Cal/Val Region Overpasses Predictions

Prediction of Satellite NPP Overpassing Cal/Val Region: PacNW

Region Location: (Latitude: 10.00, Longitude: 139.50) to (Latitude: 22.70, Longitude: 165.60).

Table of predicted overpasses for the next 14.0 days since TLE Epoch: 11/5/2012
Interval Starting Time Starting Location Ending Time Ending Location
1 11/05/2012 15:53:32 ( 22.65, 146.02) 11/05/2012 15:57:07 ( 10.03, 143.02)
2 11/06/2012 03:02:37 ( 10.03, 153.55) 11/06/2012 03:06:12 ( 22.66, 150.55)
3 11/06/2012 15:34:31 ( 22.65, 150.78) 11/06/2012 15:38:06 ( 10.03, 147.78)
4 11/07/2012 02:43:36 ( 10.04, 158.31) 11/07/2012 02:47:11 ( 22.66, 155.31)
5 11/07/2012 15:15:29 ( 22.64, 155.54) 11/07/2012 15:19:04 ( 10.03, 152.53)
6 11/08/2012 02:24:34 ( 10.04, 163.06) 11/08/2012 02:28:09 ( 22.66, 160.06)
7 11/08/2012 14:56:27 ( 22.70, 160.31) 11/08/2012 15:00:03 ( 10.02, 157.29)
8 11/09/2012 02:08:14 ( 19.50, 165.60) 11/09/2012 02:09:08 ( 22.67, 164.82)
9 11/09/2012 03:47:03 ( 10.05, 142.44) 11/09/2012 03:50:33 ( 22.38, 139.51)
10 11/09/2012 14:37:25 ( 22.69, 165.06) 11/09/2012 14:41:01 ( 10.02, 162.04)
11 11/09/2012 16:18:55 ( 22.69, 139.68) 11/09/2012 16:19:07 ( 21.99, 139.51)
12 11/10/2012 03:28:01 ( 10.06, 147.20) 11/10/2012 03:31:36 ( 22.68, 144.19)
13 11/10/2012 15:59:54 ( 22.68, 144.44) 11/10/2012 16:03:30 ( 10.00, 141.42)
14 11/11/2012 03:08:59 ( 10.01, 151.97) 11/11/2012 03:12:35 ( 22.69, 148.95)
15 11/11/2012 15:40:52 ( 22.67, 149.19) 11/11/2012 15:44:27 ( 10.06, 146.19)
16 11/12/2012 02:49:57 ( 10.02, 156.72) 11/12/2012 02:53:33 ( 22.70, 153.70)
17 11/12/2012 15:21:51 ( 22.67, 153.95) 11/12/2012 15:25:26 ( 10.05, 150.95)
18 11/13/2012 02:30:56 ( 10.03, 161.47) 11/13/2012 02:34:31 ( 22.65, 158.47)
19 11/13/2012 15:02:49 ( 22.66, 158.70) 11/13/2012 15:06:24 ( 10.04, 155.70)
20 11/14/2012 02:12:41 ( 12.80, 165.59) 11/14/2012 02:15:29 ( 22.66, 163.23)
21 11/14/2012 03:53:24 ( 10.04, 140.85) 11/14/2012 03:55:03 ( 15.86, 139.50)
22 11/14/2012 14:43:48 ( 22.65, 163.46) 11/14/2012 14:47:23 ( 10.03, 160.45)
23
